Regional Weather Roundup
Issued by NWS Grand Forks, ND

Home | Current Version | Previous Version | Graphics & Text | Print | Product List | Glossary On
Versions: 1 2 3 4 5 6 7 8 9 10 11 12 13 14 15 16 17 18 19 20 21 22 23 24 25 26 27 28 29 30 31 32 33 34 35 36 37 38 39 40 41 42 43 44 45 46 47 48 49 50
901
ASUS43 KFGF 230910
RWRFGF
PRAIRIE TO PINES  WEATHER ROUNDUP
NATIONAL WEATHER SERVICE EASTERN NORTH DAKOTA/GRAND FORKS ND
400 AM CDT MON APR 23 2018

 **SATELLITE DATA USED TO AUGMENT SKY COVER AT AUTOMATED STATIONS**
 *****  WEATHER ACROSS EASTERN NORTH DAKOTA  *****

CITY           SKY/WX    TMP DP  RH WIND       PRES   REMARKS
GRAND FORKS    FAIR      39  38  96 SW9       30.10S
GRAND FRKS AFB FAIR      43  37  79 SW8       30.10S
GRAND FRKS NWS   N/A     44  39  82 SW7       30.09S
DEVILS LAKE    FAIR      37  33  85 CALM      30.14R
FARGO          CLOUDY    43  37  79 S10       30.16S
WAHPETON ARPT  FAIR      36  32  87 SE6       30.19S
$$

 ***** WEATHER ACROSS CENTRAL AND WESTERN NORTH DAKOTA  *****

CITY           SKY/WX    TMP DP  RH WIND       PRES   REMARKS
BISMARCK       FAIR      41  37  86 SE5       30.13F
MINOT          FAIR      41  28  60 W10       30.16R
JAMESTOWN      FAIR      41  34  76 S5        30.14R
MINOT AFB      FAIR      31  27  83 NW9       30.15R WCI  23
GARRISON         N/A     37  32  82 N9        30.15R
WILLISTON      FAIR      37  30  75 NE5       30.20R
DICKINSON      FAIR      40  31  70 N9        30.12R
HETTINGER      FAIR      36  32  85 CALM      30.12S
$$

 *****  OTHER AIRPORT OBSERVATIONS IN OUR AREA  *****

CITY           SKY/WX    TMP DP  RH WIND       PRES   REMARKS
WALHALLA       FAIR      46  34  61 W6        30.11R
GRAFTON AIRPOR NOT AVBL
VALLEY CITY AR NOT AVBL
CANDO          FAIR      32  32 100 SW6       30.16R
CAVALIER APRT    N/A     46  36  66 NW10      30.10R
GWINNER          N/A     41  37  87 SW8       30.17S
SHEYENNE NWR     N/A     36  36 100 SW3       29.95S
ROLLA          FAIR      39  30  70 NW14      30.14S
 ***** THE ABOVE OBSERVATIONS ARE NON NWS ARE NOT QUALITY
       CONTROLLED AND MAY MIS-REPORT RAIN FOR SNOW...
$$

  *****  WEATHER ACROSS NORTHERN MINNESOTA  *****

CITY           SKY/WX    TMP DP  RH WIND       PRES   REMARKS
FLAG ISLAND    FAIR      43  36  75 SW15      30.06S
WARROAD        FAIR      46  39  76 SW9       30.10S
ROSEAU         FAIR      46  39  76 SW12      30.09S
HALLOCK        FAIR      39  37  93 S5        30.11R
THF RVR FALLS  MOCLDY    46  39  76 SW12      30.13S
BAUDETTE       CLOUDY    49  37  63 SW10      30.10F
WASKISH        CLOUDY    43  34  70 SW3       30.14S
CROOKSTON      FAIR      45  39  81 S12       30.14S
STEPHEN NDAWN    N/A     45  39  81 S7          N/A
GREENBUSH NDAW   N/A     43  39  87 S9          N/A
$$
  *****  WEATHER ACROSS CENTRAL AND WEST MINNESOTA  *****

CITY           SKY/WX    TMP DP  RH WIND       PRES   REMARKS
FOSSTON        CLOUDY    43  34  70 S10       30.16S
BEMIDJI        MOCLDY    44  32  61 SW6       30.16S
PARK RAPIDS    FAIR      39  33  79 CALM      30.18S
ELBOW LAKE     FAIR      35  32  90 S7        30.21S
WADENA         FAIR      36  34  93 S3        30.20S
DETROIT LAKES  FAIR      41  34  75 CALM      30.19S
MOORHEAD       MOCLDY    39  36  87 S13       30.18S
FERGUS FALLS   FAIR      37  34  87 SE8       30.19S
MORRIS MN      FAIR      37  36  93 S6        30.20S
STAPLES        FAIR      34  32  93 CALM      30.21R
$$
  *****  WEATHER ELSEWHERE ACROSS MINNESOTA  *****

CITY           SKY/WX    TMP DP  RH WIND       PRES   REMARKS
DULUTH         FAIR      41  28  60 SW3       30.20F
INTRNTL FALLS  MOCLDY    45  35  68 SW6       30.12F
ELY            FAIR      39  28  65 CALM      30.18S
CLOQUET        FAIR      36  27  69 CALM      30.21S
WHEATON        FAIR      39  36  87 S7        30.22S
BRAINERD       FAIR      31  26  82 S3        30.22R
HIBBING        FAIR      26  24  92 CALM      30.19S
ALEXANDRIA     FAIR      43  33  68 SW8       30.22R
SAINT CLOUD    FAIR      34  33  96 CALM      30.22S
MINNEAPOLIS    FAIR      42  36  79 CALM      30.24S
$$

  *****  WEATHER ACROSS SOUTH DAKOTA  *****

CITY           SKY/WX    TMP DP  RH WIND       PRES   REMARKS
SIOUX FALLS    FAIR      37  33  85 NE5       30.20S
BROOKINGS      FAIR      36  34  92 CALM      30.20F
WATERTOWN      FAIR      39  35  86 S7        30.19S
HURON            N/A     39  36  89 SE6       30.18S
SISSETON         N/A     34  33  96 SE5       30.18S
ABERDEEN       FAIR      37  35  92 S7        30.17F
MITCHELL       FAIR      41  38  89 SE5       30.19S
PIERRE         FAIR      39  35  86 CALM      30.12S
MOBRIDGE       FAIR      41  33  73 SE7       30.10F
RAPID CITY     FAIR      39  35  86 SE5       30.07F
$$

  *****  SOME WEATHER IN NEARBY STATES *****

CITY           SKY/WX    TMP DP  RH WIND       PRES   REMARKS
GLASGOW MT     FAIR      46  30  53 NE14      30.21R
GREAT FALLS MT CLOUDY    39  24  55 NE10      30.25F
CHEYENNE WY    FAIR      38  35  89 SW3       30.11F
SCOTTSBLUFF NE FAIR      37  36  96 E9        30.10F
OMAHA NE       FAIR      42  31  64 N5        30.17S
DES MOINES IA  MOCLDY    51  30  44 E8        30.17S
DAVENPORT IA   FAIR      42  27  55 NE10      30.20S
CHICAGO IL     MOCLDY    46  26  45 NE8       30.19F
EAU CLAIRE WI  FAIR      35  26  69 N3        30.25S
LA CROSSE WI   FAIR      40  30  67 E3        30.26S
$$

  *****  SOME NATIONAL WEATHER *****

CITY           SKY/WX    TMP DP  RH WIND       PRES   REMARKS
LA GUARDIA NY  FAIR      46  37  71 NE5       30.42R
RALEIGH NC     CLOUDY    53  46  77 E8        30.31R
ATLANTA GA     LGT RAIN  58  58 100 VRB6      29.95R
NEW ORLEANS LA FAIR      58  52  80 NW9       29.95F
OKLAHOMA CITY  FAIR      50  46  86 NW10      30.05F
ALBUQUERQUE NM FAIR      56  29  35 E7        30.12S
SALT LAKE CITY MOCLDY    62  38  40 N3        29.91F
LOS ANGELES CA MOCLDY    58  55  90 CALM      29.96S
BOISE ID       FAIR      42  26  53 W7        30.12R
SEATTLE WA     FAIR      45  37  73 N7        30.34S
$$

*** WEATHER ACROSS MANITOBA...SASKATCHEWAN AND ONTARIO ***
                ***ONTARIO***

CITY           SKY/WX    TMP DP  RH WIND       PRES   REMARKS
GERALDTON      PTCLDY    39  21  48 SW8       30.10F
THUNDER BAY    CLEAR     28  23  80 CALM      30.18S
SIOUX LOOKOUT  CLEAR     45  36  70 SW7       30.04S
TORONTO        CLEAR     37  23  56 N3        30.38S
BIG TROUT LK   MOCLDY    41  30  65 SW10G18   29.75F
PICKLE LAKE    NOT AVBL
DRYDEN         CLEAR     46  37  71 SW10      30.05S
KENORA         PTCLDY    41  37  87 SW8       30.05S
$$
                *** MANITOBA***

CITY           SKY/WX    TMP DP  RH WIND       PRES   REMARKS
BRANDON        MOCLDY    37  30  75 W12       30.13R
DAUPHIN        CLEAR     39  34  81 W17G23    30.08R
ISLAND LAKE    CLOUDY    39  32  75 W18G24    29.78R
PILOT MOUND      N/A     39  28  65 NW5         N/A
THE PAS        FLURRIES  34  30  86 W12G20    29.96R
THOMPSON       NOT AVBL
WINNIPEG       PTCLDY    45  30  57 W12       30.08R
LYNN LAKE      LGT SNOW  18  16  93 N12       29.95R WCI   5
CHURCHILL      LGT SNOW  21  19  93 NE30G40   29.77R BLWGSNOWWCI   3
GILLAM         FRZ RAIN  30  28  93 NW21G30   29.65R WCI  17
$$
                ***SASKATCHEWAN***

CITY           SKY/WX    TMP DP  RH WIND       PRES   REMARKS
ESTEVAN        PTCLDY    30  27  86 SW6       30.20R WCI  24
KINDERSLEY     PTCLDY    32  30  93 NW8       30.26S WCI  25
LLOYDMINSTER   CLEAR     30  27  86 W12       30.24R WCI  21
PRINCE ALBERT  PTCLDY    37  32  81 W9        30.15R
REGINA         CLEAR     32  30  93 W9        30.20R WCI  24
YORKTON        CLEAR     36  32  87 W10       30.13R
N. BATTLEFORD  CLEAR     36  30  80 W10       30.25R
LA RONGE       LGT RAIN  34  34 100 NW8       30.07R
SASKATOON      PTCLDY    36  32  87 W9        30.22R
SWIFT CURRENT  MOCLDY    30  27  86 W8        30.24R WCI  23
$$
NOTE: THESE ARE AUTOMATED STATIONS WITH LIMITED QUALITY CONTROL
      "FAIR" INDICATES FEW OR NO CLOUDS BELOW 12,000 FEET WITH NO
      SIGNIFICANT WEATHER AND/OR OBSTRUCTIONS TO VISIBILITY.
      SKY/WX - SKY CONDITION AND SIGNIFICANT WEATHER.
      TMP - AIR TEMPERATURE.    DP   - DEWPOINT TEMPERATURE.
      RH  - RELATIVE HUMIDITY.  PRES - PRESSURE.
      HX  - HEAT INDEX.         WCI  - WIND CHILL INDEX.
$




USA.gov is the U.S. government's official web portal to all federal, state and local government web resources and services.